Darstellungsparameter: Aktuell verwendete Einstellungen:
Skalierung der Graphiken ... ?
xyx+y,   Skalierungsfaktor:      Skalierung: Modus: x, Faktor: 1
Darstellungszeitraum ... ?
Vom - - bis: - -   Zeitraum: 17.10.2020 - 17.10.2020
Min/Max/Avg-Anzeige ... ?
Zeige MMA aktuell
Zeige MMA Monat
Zeige MMA alles
Zeige --A aktuell
Zeige --A Monat
Zeige --A alles
Keine MMA-Anzeige
MMA:
Keine MMA-Graphiken
MMA-Basis: 17.10.2020 - 17.10.2020
Quicknavigation für Darstellung... ?
Tage:      1T, 2T, 3T, 5T -1T -2T -3T -5T +1T +2T +3T +5T
Wochen: 1W, 2W, 3W -1W -2W -3W +1W +2W +3W
Monate: 1M, 3M, 6M -1M -3M -6M +1M +3M +6M
Jahre:    1J, 3J, 5J, 10J -1J -3J -5J -10J +1J +3J +5J +10J
Nutze für die Darstellung ... ?
Originaldaten oder Mittelwerte auf ...
Stundenbasis Tagesbasis Wochenbasis
Monatsbasis Jahresbasis      Datenbasis: Original-Daten
Darstellen als:
Statistik (Auto) Statistik J:M      Darstellung:
Zur Graphik,    zurück zur Übersicht aller Sensoren.
 
Tabellarische Datenbersicht: ?
 
Sensor: Nr:Datum:Temp:Abs-Feuchte:Windchill:Wind:
Aussen-T/F 1 17-10-2020 00:00:00 6.3 C 7.03 g/m*3 6.3 C 0 km/h
2 17-10-2020 00:05:00 6.3 C 7.03 g/m*3 6.3 C 0 km/h
3 17-10-2020 00:10:00 6.2 C 6.99 g/m*3 6.2 C 0 km/h
4 17-10-2020 00:15:00 6.2 C 6.99 g/m*3 6.2 C 0 km/h
5 17-10-2020 00:20:00 6.1 C 6.94 g/m*3 6.1 C 0 km/h
6 17-10-2020 00:25:00 6.1 C 6.94 g/m*3 6.1 C 4.8 km/h
7 17-10-2020 00:30:00 6 C 6.9 g/m*3 6 C 4.8 km/h
8 17-10-2020 00:35:00 6 C 6.9 g/m*3 6 C 4.8 km/h
9 17-10-2020 00:40:00 5.9 C 6.85 g/m*3 5.9 C 4.8 km/h
10 17-10-2020 00:45:00 5.9 C 6.85 g/m*3 5.9 C 4.8 km/h
11 17-10-2020 00:50:00 5.9 C 6.85 g/m*3 5.9 C 3.2 km/h
12 17-10-2020 00:55:00 5.9 C 6.92 g/m*3 5.9 C 3.2 km/h
13 17-10-2020 01:00:00 5.8 C 6.88 g/m*3 5.8 C 3.2 km/h
14 17-10-2020 01:05:00 5.8 C 6.88 g/m*3 5.8 C 1.6 km/h
15 17-10-2020 01:10:00 5.7 C 6.76 g/m*3 5.7 C 0 km/h
16 17-10-2020 01:15:00 5.6 C 6.72 g/m*3 5.6 C 0 km/h
17 17-10-2020 01:20:00 5.5 C 6.67 g/m*3 5.5 C 0 km/h
18 17-10-2020 01:25:00 5.4 C 6.63 g/m*3 5.4 C 0 km/h
19 17-10-2020 01:30:00 5.3 C 6.58 g/m*3 5.3 C 0 km/h
20 17-10-2020 01:35:00 5.2 C 6.54 g/m*3 5.2 C 0 km/h
21 17-10-2020 01:40:00 5.1 C 6.5 g/m*3 5.1 C 0 km/h
22 17-10-2020 01:45:00 5 C 6.46 g/m*3 5 C 0 km/h
23 17-10-2020 01:50:00 4.9 C 6.41 g/m*3 4.9 C 0 km/h
24 17-10-2020 01:55:00 4.8 C 6.37 g/m*3 4.8 C 0 km/h
25 17-10-2020 02:00:00 4.8 C 6.37 g/m*3 4.8 C 0 km/h
Sensor: Nr:Datum:Temp:Abs-Feuchte:Windchill:Wind:
Aussen-T/F 26 17-10-2020 02:05:00 4.7 C 6.33 g/m*3 4.7 C 0 km/h
27 17-10-2020 02:10:00 4.7 C 6.33 g/m*3 4.7 C 0 km/h
28 17-10-2020 02:15:00 4.6 C 6.29 g/m*3 4.6 C 0 km/h
29 17-10-2020 02:20:00 4.6 C 6.29 g/m*3 4.6 C 0 km/h
30 17-10-2020 02:25:00 4.5 C 6.31 g/m*3 4.5 C 0 km/h
31 17-10-2020 02:30:00 4.4 C 6.27 g/m*3 4.4 C 0 km/h
32 17-10-2020 02:35:00 4.4 C 6.27 g/m*3 4.4 C 0 km/h
33 17-10-2020 02:40:00 4.4 C 6.2 g/m*3 4.4 C 0 km/h
34 17-10-2020 02:45:00 4.4 C 6.27 g/m*3 4.4 C 0 km/h
35 17-10-2020 02:50:00 4.4 C 6.27 g/m*3 4.4 C 0 km/h
36 17-10-2020 02:55:00 4.3 C 6.23 g/m*3 4.3 C 0 km/h
37 17-10-2020 03:00:00 4.3 C 6.23 g/m*3 4.3 C 0 km/h
38 17-10-2020 03:05:00 4.3 C 6.23 g/m*3 4.3 C 0 km/h
39 17-10-2020 03:10:00 4.3 C 6.23 g/m*3 4.3 C 0 km/h
40 17-10-2020 03:15:00 4.3 C 6.23 g/m*3 4.3 C 0 km/h
41 17-10-2020 03:20:00 4.3 C 6.23 g/m*3 4.3 C 0 km/h
42 17-10-2020 03:25:00 4.3 C 6.23 g/m*3 4.3 C 0 km/h
43 17-10-2020 03:30:00 4.2 C 6.19 g/m*3 4.2 C 0 km/h
44 17-10-2020 03:35:00 4.2 C 6.19 g/m*3 4.2 C 0 km/h
45 17-10-2020 03:40:00 4.1 C 6.14 g/m*3 4.1 C 0 km/h
46 17-10-2020 03:45:00 4 C 6.1 g/m*3 4 C 0 km/h
47 17-10-2020 03:50:00 4 C 6.1 g/m*3 4 C 0 km/h
48 17-10-2020 03:55:00 3.9 C 6.06 g/m*3 3.9 C 0 km/h
49 17-10-2020 04:00:00 3.8 C 6.02 g/m*3 3.8 C 0 km/h
50 17-10-2020 04:05:00 3.8 C 6.02 g/m*3 3.8 C 0 km/h
Sensor: Nr:Datum:Temp:Abs-Feuchte:Windchill:Wind:
Aussen-T/F 51 17-10-2020 04:10:00 3.7 C 5.98 g/m*3 3.7 C 0 km/h
52 17-10-2020 04:15:00 3.7 C 5.98 g/m*3 3.7 C 0 km/h
53 17-10-2020 04:20:00 3.6 C 5.94 g/m*3 3.6 C 0 km/h
54 17-10-2020 04:25:00 3.6 C 5.94 g/m*3 3.6 C 0 km/h
55 17-10-2020 04:30:00 3.6 C 5.94 g/m*3 3.6 C 0 km/h
56 17-10-2020 04:35:00 3.6 C 5.94 g/m*3 3.6 C 0 km/h
57 17-10-2020 04:40:00 3.5 C 5.9 g/m*3 3.5 C 0 km/h
58 17-10-2020 04:45:00 3.4 C 5.86 g/m*3 3.4 C 0 km/h
59 17-10-2020 04:50:00 3.3 C 5.82 g/m*3 3.3 C 0 km/h
60 17-10-2020 04:55:00 3.3 C 5.82 g/m*3 3.3 C 0 km/h
61 17-10-2020 05:00:00 3.2 C 5.79 g/m*3 3.2 C 0 km/h
62 17-10-2020 05:05:00 3.1 C 5.75 g/m*3 3.1 C 0 km/h
63 17-10-2020 05:10:00 3.1 C 5.75 g/m*3 3.1 C 0 km/h
64 17-10-2020 05:15:00 3.1 C 5.75 g/m*3 3.1 C 0 km/h
65 17-10-2020 05:20:00 3.1 C 5.75 g/m*3 3.1 C 0 km/h
66 17-10-2020 05:25:00 3.1 C 5.75 g/m*3 3.1 C 0 km/h
67 17-10-2020 05:30:00 3.1 C 5.75 g/m*3 3.1 C 0 km/h
68 17-10-2020 05:35:00 3.1 C 5.75 g/m*3 3.1 C 0 km/h
69 17-10-2020 05:40:00 3.2 C 5.79 g/m*3 3.2 C 0 km/h
70 17-10-2020 05:45:00 3.2 C 5.79 g/m*3 3.2 C 0 km/h
71 17-10-2020 05:50:00 3.1 C 5.75 g/m*3 3.1 C 0 km/h
72 17-10-2020 05:55:00 3.1 C 5.75 g/m*3 3.1 C 0 km/h
73 17-10-2020 06:00:00 3.1 C 5.75 g/m*3 3.1 C 0 km/h
74 17-10-2020 06:05:00 3.1 C 5.75 g/m*3 3.1 C 0 km/h
75 17-10-2020 06:10:00 3.1 C 5.75 g/m*3 3.1 C 0 km/h
Sensor: Nr:Datum:Temp:Abs-Feuchte:Windchill:Wind:
Aussen-T/F 76 17-10-2020 06:15:00 3.2 C 5.79 g/m*3 3.2 C 0 km/h
77 17-10-2020 06:20:00 3.2 C 5.79 g/m*3 3.2 C 0 km/h
78 17-10-2020 06:25:00 3.3 C 5.82 g/m*3 3.3 C 0 km/h
79 17-10-2020 06:30:00 3.3 C 5.82 g/m*3 3.3 C 0 km/h
80 17-10-2020 06:35:00 3.3 C 5.82 g/m*3 3.3 C 0 km/h
81 17-10-2020 06:40:00 3.3 C 5.82 g/m*3 3.3 C 0 km/h
82 17-10-2020 06:45:00 3.3 C 5.82 g/m*3 3.3 C 0 km/h
83 17-10-2020 06:50:00 3.3 C 5.82 g/m*3 3.3 C 0 km/h
84 17-10-2020 06:55:00 3.3 C 5.82 g/m*3 3.3 C 0 km/h
85 17-10-2020 07:00:00 3.3 C 5.82 g/m*3 3.3 C 0 km/h
86 17-10-2020 07:05:00 3.4 C 5.86 g/m*3 3.4 C 0 km/h
87 17-10-2020 07:10:00 3.3 C 5.82 g/m*3 3.3 C 0 km/h
88 17-10-2020 07:15:00 3.3 C 5.82 g/m*3 3.3 C 0 km/h
89 17-10-2020 07:20:00 3.3 C 5.82 g/m*3 3.3 C 0 km/h
90 17-10-2020 07:25:00 3.2 C 5.79 g/m*3 3.2 C 0 km/h
91 17-10-2020 07:30:00 3.2 C 5.79 g/m*3 3.2 C 0 km/h
92 17-10-2020 07:35:00 3.3 C 5.82 g/m*3 3.3 C 0 km/h
93 17-10-2020 07:40:00 3.3 C 5.82 g/m*3 3.3 C 0 km/h
94 17-10-2020 07:45:00 3.4 C 5.92 g/m*3 3.4 C 0 km/h
95 17-10-2020 07:50:00 3.5 C 5.96 g/m*3 3.5 C 0 km/h
96 17-10-2020 07:55:00 3.6 C 6 g/m*3 3.6 C 0 km/h
97 17-10-2020 08:00:00 3.6 C 6 g/m*3 3.6 C 0 km/h
98 17-10-2020 08:05:00 3.6 C 6 g/m*3 3.6 C 0 km/h
99 17-10-2020 08:10:00 3.6 C 6 g/m*3 3.6 C 0 km/h
100 17-10-2020 08:15:00 3.6 C 6 g/m*3 3.6 C 0 km/h
Sensor: Nr:Datum:Temp:Abs-Feuchte:Windchill:Wind:
Aussen-T/F 101 17-10-2020 08:20:00 3.7 C 6.04 g/m*3 3.7 C 0 km/h
102 17-10-2020 08:25:00 3.7 C 6.04 g/m*3 3.7 C 0 km/h
103 17-10-2020 08:30:00 3.8 C 6.09 g/m*3 3.8 C 0 km/h
104 17-10-2020 08:35:00 3.9 C 6.13 g/m*3 3.9 C 1.6 km/h
105 17-10-2020 08:40:00 3.9 C 6.13 g/m*3 3.9 C 0 km/h
106 17-10-2020 08:45:00 4 C 6.17 g/m*3 4 C 0 km/h
107 17-10-2020 08:50:00 4.1 C 6.21 g/m*3 4.1 C 0 km/h
108 17-10-2020 08:55:00 4.2 C 6.25 g/m*3 4.2 C 0 km/h
109 17-10-2020 09:00:00 4.2 C 6.25 g/m*3 4.2 C 0 km/h
110 17-10-2020 09:05:00 4.3 C 6.29 g/m*3 4.3 C 0 km/h
111 17-10-2020 09:10:00 4.4 C 6.33 g/m*3 4.4 C 0 km/h
112 17-10-2020 09:15:00 4.6 C 6.42 g/m*3 4.6 C 0 km/h
113 17-10-2020 09:20:00 4.7 C 6.46 g/m*3 4.7 C 4.8 km/h
114 17-10-2020 09:25:00 4.8 C 6.5 g/m*3 4.8 C 4.8 km/h
115 17-10-2020 09:30:00 4.9 C 6.55 g/m*3 4.9 C 4.8 km/h
116 17-10-2020 09:35:00 5.1 C 6.63 g/m*3 5.1 C 1.6 km/h
117 17-10-2020 09:40:00 5.1 C 6.63 g/m*3 3.71 C 6.4 km/h
118 17-10-2020 09:45:00 5.2 C 6.68 g/m*3 5.2 C 1.6 km/h
119 17-10-2020 09:50:00 5.3 C 6.72 g/m*3 5.3 C 3.2 km/h
120 17-10-2020 09:55:00 5.3 C 6.72 g/m*3 5.3 C 1.6 km/h
121 17-10-2020 10:00:00 5.3 C 6.72 g/m*3 5.3 C 3.2 km/h
122 17-10-2020 10:05:00 5.3 C 6.72 g/m*3 5.3 C 3.2 km/h
123 17-10-2020 10:10:00 5.4 C 6.77 g/m*3 5.4 C 3.2 km/h
124 17-10-2020 10:15:00 5.5 C 6.81 g/m*3 5.5 C 0 km/h
125 17-10-2020 10:20:00 5.6 C 6.86 g/m*3 5.6 C 0 km/h
Sensor: Nr:Datum:Temp:Abs-Feuchte:Windchill:Wind:
Aussen-T/F 126 17-10-2020 10:25:00 5.7 C 6.9 g/m*3 5.7 C 0 km/h
127 17-10-2020 10:30:00 5.7 C 6.9 g/m*3 5.7 C 0 km/h
128 17-10-2020 10:35:00 5.8 C 6.95 g/m*3 5.8 C 0 km/h
129 17-10-2020 10:40:00 5.9 C 6.99 g/m*3 5.9 C 1.6 km/h
130 17-10-2020 10:45:00 5.9 C 6.99 g/m*3 5.9 C 0 km/h
131 17-10-2020 10:50:00 6 C 7.04 g/m*3 6 C 0 km/h
132 17-10-2020 10:55:00 6.1 C 7.09 g/m*3 6.1 C 0 km/h
133 17-10-2020 11:00:00 6.1 C 7.09 g/m*3 6.1 C 0 km/h
134 17-10-2020 11:05:00 6.2 C 7.13 g/m*3 6.2 C 0 km/h
135 17-10-2020 11:10:00 6.2 C 7.13 g/m*3 6.2 C 0 km/h
136 17-10-2020 11:15:00 6.2 C 7.13 g/m*3 6.2 C 0 km/h
137 17-10-2020 11:20:00 6.2 C 7.13 g/m*3 6.2 C 0 km/h
138 17-10-2020 11:25:00 6.3 C 7.18 g/m*3 6.3 C 0 km/h
139 17-10-2020 11:30:00 6.3 C 7.18 g/m*3 6.3 C 0 km/h
140 17-10-2020 11:35:00 6.3 C 7.18 g/m*3 6.3 C 0 km/h
141 17-10-2020 11:40:00 6.3 C 7.18 g/m*3 6.3 C 0 km/h
142 17-10-2020 11:45:00 6.3 C 7.18 g/m*3 6.3 C 0 km/h
143 17-10-2020 11:50:00 6.4 C 7.23 g/m*3 6.4 C 0 km/h
144 17-10-2020 11:55:00 6.5 C 7.27 g/m*3 6.5 C 0 km/h
145 17-10-2020 12:00:00 6.6 C 7.32 g/m*3 6.6 C 0 km/h
146 17-10-2020 12:05:00 6.7 C 7.37 g/m*3 6.7 C 0 km/h
147 17-10-2020 12:10:00 6.7 C 7.37 g/m*3 6.7 C 0 km/h
148 17-10-2020 12:15:00 6.8 C 7.42 g/m*3 6.8 C 0 km/h
149 17-10-2020 12:20:00 6.9 C 7.47 g/m*3 6.9 C 0 km/h
150 17-10-2020 12:25:00 7 C 7.52 g/m*3 7 C 0 km/h
Sensor: Nr:Datum:Temp:Abs-Feuchte:Windchill:Wind:
Aussen-T/F 151 17-10-2020 12:30:00 7.1 C 7.57 g/m*3 7.1 C 0 km/h
152 17-10-2020 12:35:00 7.2 C 7.61 g/m*3 7.2 C 0 km/h
153 17-10-2020 12:40:00 7.3 C 7.66 g/m*3 7.3 C 0 km/h
154 17-10-2020 12:45:00 7.3 C 7.66 g/m*3 7.3 C 0 km/h
155 17-10-2020 12:50:00 7.3 C 7.66 g/m*3 7.3 C 0 km/h
156 17-10-2020 12:55:00 7.4 C 7.71 g/m*3 7.4 C 0 km/h
157 17-10-2020 13:00:00 7.3 C 7.66 g/m*3 7.3 C 1.6 km/h
158 17-10-2020 13:05:00 7.3 C 7.66 g/m*3 7.3 C 0 km/h
159 17-10-2020 13:10:00 7.3 C 7.66 g/m*3 7.3 C 0 km/h
160 17-10-2020 13:15:00 7.4 C 7.71 g/m*3 7.4 C 0 km/h
161 17-10-2020 13:20:00 7.4 C 7.71 g/m*3 7.4 C 0 km/h
162 17-10-2020 13:25:00 7.4 C 7.71 g/m*3 7.4 C 3.2 km/h
163 17-10-2020 13:30:00 7.5 C 7.68 g/m*3 7.5 C 0 km/h
164 17-10-2020 13:35:00 7.6 C 7.73 g/m*3 7.6 C 0 km/h
165 17-10-2020 13:40:00 7.7 C 7.78 g/m*3 7.7 C 0 km/h
166 17-10-2020 13:45:00 7.8 C 7.83 g/m*3 7.8 C 0 km/h
167 17-10-2020 13:50:00 7.9 C 7.89 g/m*3 7.9 C 0 km/h
168 17-10-2020 13:55:00 7.9 C 7.8 g/m*3 7.9 C 0 km/h
169 17-10-2020 14:00:00 8.1 C 7.9 g/m*3 8.1 C 0 km/h
170 17-10-2020 14:05:00 8.3 C 8.01 g/m*3 8.3 C 0 km/h
171 17-10-2020 14:10:00 8.4 C 7.97 g/m*3 8.4 C 0 km/h
172 17-10-2020 14:15:00 8.4 C 7.97 g/m*3 8.4 C 0 km/h
173 17-10-2020 14:20:00 8.6 C 8.08 g/m*3 8.6 C 0 km/h
174 17-10-2020 14:25:00 8.7 C 8.04 g/m*3 8.7 C 0 km/h
175 17-10-2020 14:30:00 8.7 C 8.04 g/m*3 8.7 C 0 km/h
Sensor: Nr:Datum:Temp:Abs-Feuchte:Windchill:Wind:
Aussen-T/F 176 17-10-2020 14:35:00 8.7 C 7.96 g/m*3 8.7 C 1.6 km/h
177 17-10-2020 14:40:00 8.8 C 7.92 g/m*3 8.8 C 0 km/h
178 17-10-2020 14:45:00 8.9 C 7.97 g/m*3 8.9 C 0 km/h
179 17-10-2020 14:50:00 9.1 C 7.99 g/m*3 9.1 C 0 km/h
180 17-10-2020 14:55:00 9.2 C 8.04 g/m*3 9.2 C 0 km/h
181 17-10-2020 15:00:00 9.3 C 8.09 g/m*3 9.3 C 0 km/h
182 17-10-2020 15:05:00 9.3 C 7.91 g/m*3 9.3 C 3.2 km/h
183 17-10-2020 15:10:00 9.4 C 7.96 g/m*3 9.4 C 1.6 km/h
184 17-10-2020 15:15:00 9.6 C 8.06 g/m*3 9.6 C 0 km/h
185 17-10-2020 15:20:00 9.7 C 8.02 g/m*3 9.7 C 0 km/h
186 17-10-2020 15:25:00 9.7 C 7.93 g/m*3 9.7 C 0 km/h
187 17-10-2020 15:30:00 9.8 C 7.98 g/m*3 9.8 C 0 km/h
188 17-10-2020 15:35:00 9.8 C 7.89 g/m*3 9.8 C 0 km/h
189 17-10-2020 15:40:00 9.8 C 7.79 g/m*3 9.8 C 1.6 km/h
190 17-10-2020 15:45:00 9.9 C 7.94 g/m*3 9.9 C 4.8 km/h
191 17-10-2020 15:50:00 9.9 C 7.75 g/m*3 9.9 C 3.2 km/h
192 17-10-2020 15:55:00 9.8 C 7.61 g/m*3 9.8 C 1.6 km/h
193 17-10-2020 16:00:00 9.9 C 7.75 g/m*3 9.9 C 1.6 km/h
194 17-10-2020 16:05:00 9.9 C 7.56 g/m*3 9.9 C 1.6 km/h
195 17-10-2020 16:10:00 9.8 C 7.42 g/m*3 9.8 C 0 km/h
196 17-10-2020 16:15:00 9.8 C 7.61 g/m*3 9.8 C 0 km/h
197 17-10-2020 16:20:00 9.8 C 7.52 g/m*3 9.8 C 1.6 km/h
198 17-10-2020 16:25:00 9.8 C 7.52 g/m*3 9.8 C 1.6 km/h
199 17-10-2020 16:30:00 9.8 C 7.52 g/m*3 9.14 C 6.4 km/h
200 17-10-2020 16:35:00 9.7 C 7.28 g/m*3 8.63 C 8.1 km/h
Sensor: Nr:Datum:Temp:Abs-Feuchte:Windchill:Wind:
Aussen-T/F 201 17-10-2020 16:40:00 9.6 C 7.24 g/m*3 8.21 C 9.7 km/h
202 17-10-2020 16:45:00 9.6 C 7.33 g/m*3 8.91 C 6.4 km/h
203 17-10-2020 16:50:00 9.5 C 7.37 g/m*3 9.5 C 4.8 km/h
204 17-10-2020 16:55:00 9.5 C 7.37 g/m*3 9.5 C 0 km/h
205 17-10-2020 17:00:00 9.4 C 7.42 g/m*3 9.4 C 1.6 km/h
206 17-10-2020 17:05:00 9.4 C 7.42 g/m*3 9.4 C 0 km/h
207 17-10-2020 17:10:00 9.4 C 7.42 g/m*3 9.4 C 1.6 km/h
208 17-10-2020 17:15:00 9.4 C 7.6 g/m*3 9.4 C 0 km/h
209 17-10-2020 17:20:00 9.4 C 7.51 g/m*3 9.4 C 1.6 km/h
210 17-10-2020 17:25:00 9.4 C 7.51 g/m*3 9.4 C 0 km/h
211 17-10-2020 17:30:00 9.4 C 7.69 g/m*3 9.4 C 0 km/h
212 17-10-2020 17:35:00 9.4 C 7.69 g/m*3 9.4 C 0 km/h
213 17-10-2020 17:40:00 9.3 C 7.55 g/m*3 9.3 C 1.6 km/h
214 17-10-2020 17:45:00 9.3 C 7.55 g/m*3 9.3 C 0 km/h
215 17-10-2020 17:50:00 9.3 C 7.73 g/m*3 9.3 C 0 km/h
216 17-10-2020 17:55:00 9.3 C 7.82 g/m*3 9.3 C 0 km/h
217 17-10-2020 18:00:00 9.2 C 7.77 g/m*3 9.2 C 0 km/h
218 17-10-2020 18:05:00 9.2 C 7.77 g/m*3 9.2 C 0 km/h
219 17-10-2020 18:10:00 9.1 C 7.72 g/m*3 9.1 C 0 km/h
220 17-10-2020 18:15:00 8.9 C 7.71 g/m*3 8.9 C 3.2 km/h
221 17-10-2020 18:20:00 8.8 C 7.66 g/m*3 8.8 C 1.6 km/h
222 17-10-2020 18:25:00 8.7 C 7.61 g/m*3 8.7 C 1.6 km/h
223 17-10-2020 18:30:00 8.6 C 7.56 g/m*3 8.6 C 1.6 km/h
224 17-10-2020 18:35:00 8.5 C 7.6 g/m*3 8.5 C 3.2 km/h
225 17-10-2020 18:40:00 8.4 C 7.55 g/m*3 8.4 C 0 km/h
Sensor: Nr:Datum:Temp:Abs-Feuchte:Windchill:Wind:
Aussen-T/F 226 17-10-2020 18:45:00 8.3 C 7.5 g/m*3 8.3 C 0 km/h
227 17-10-2020 18:50:00 8.3 C 7.5 g/m*3 8.3 C 3.2 km/h
228 17-10-2020 18:55:00 8.2 C 7.54 g/m*3 8.2 C 3.2 km/h
229 17-10-2020 19:00:00 8.1 C 7.49 g/m*3 8.1 C 1.6 km/h
230 17-10-2020 19:05:00 8 C 7.44 g/m*3 8 C 0 km/h
231 17-10-2020 19:10:00 7.9 C 7.39 g/m*3 7.9 C 0 km/h
232 17-10-2020 19:15:00 7.9 C 7.39 g/m*3 7.9 C 0 km/h
233 17-10-2020 19:20:00 7.8 C 7.35 g/m*3 7.8 C 0 km/h
234 17-10-2020 19:25:00 7.8 C 7.43 g/m*3 7.8 C 3.2 km/h
235 17-10-2020 19:30:00 7.8 C 7.43 g/m*3 7.8 C 4.8 km/h
236 17-10-2020 19:35:00 7.8 C 7.43 g/m*3 7.8 C 3.2 km/h
237 17-10-2020 19:40:00 7.8 C 7.43 g/m*3 7.8 C 3.2 km/h
238 17-10-2020 19:45:00 7.8 C 7.43 g/m*3 7.8 C 3.2 km/h
239 17-10-2020 19:50:00 7.7 C 7.38 g/m*3 7.7 C 0 km/h
240 17-10-2020 19:55:00 7.7 C 7.38 g/m*3 7.7 C 3.2 km/h
241 17-10-2020 20:00:00 7.6 C 7.33 g/m*3 7.6 C 4.8 km/h
242 17-10-2020 20:05:00 7.6 C 7.33 g/m*3 7.6 C 4.8 km/h
243 17-10-2020 20:10:00 7.5 C 7.36 g/m*3 7.5 C 3.2 km/h
244 17-10-2020 20:15:00 7.5 C 7.28 g/m*3 7.5 C 3.2 km/h
245 17-10-2020 20:20:00 7.4 C 7.32 g/m*3 7.4 C 3.2 km/h
246 17-10-2020 20:25:00 7.4 C 7.32 g/m*3 7.4 C 3.2 km/h
247 17-10-2020 20:30:00 7.4 C 7.32 g/m*3 7.4 C 0 km/h
248 17-10-2020 20:35:00 7.4 C 7.32 g/m*3 7.4 C 1.6 km/h
249 17-10-2020 20:40:00 7.3 C 7.27 g/m*3 7.3 C 0 km/h
250 17-10-2020 20:45:00 7.3 C 7.27 g/m*3 7.3 C 1.6 km/h
Sensor: Nr:Datum:Temp:Abs-Feuchte:Windchill:Wind:
Aussen-T/F 251 17-10-2020 20:50:00 7.2 C 7.22 g/m*3 7.2 C 1.6 km/h
252 17-10-2020 20:55:00 7.1 C 7.18 g/m*3 7.1 C 1.6 km/h
253 17-10-2020 21:00:00 7 C 7.13 g/m*3 7 C 3.2 km/h
254 17-10-2020 21:05:00 6.9 C 7.08 g/m*3 6.9 C 3.2 km/h
255 17-10-2020 21:10:00 6.9 C 7.08 g/m*3 6.9 C 3.2 km/h
256 17-10-2020 21:15:00 6.8 C 7.04 g/m*3 6.8 C 3.2 km/h
257 17-10-2020 21:20:00 6.7 C 6.99 g/m*3 6.7 C 3.2 km/h
258 17-10-2020 21:25:00 6.6 C 6.95 g/m*3 6.6 C 1.6 km/h
259 17-10-2020 21:30:00 6.5 C 6.9 g/m*3 6.5 C 3.2 km/h
260 17-10-2020 21:35:00 6.5 C 6.97 g/m*3 6.5 C 3.2 km/h
261 17-10-2020 21:40:00 6.4 C 6.93 g/m*3 6.4 C 0 km/h
262 17-10-2020 21:45:00 6.4 C 6.93 g/m*3 6.4 C 0 km/h
263 17-10-2020 21:50:00 6.4 C 6.93 g/m*3 6.4 C 0 km/h
264 17-10-2020 21:55:00 6.3 C 6.88 g/m*3 6.3 C 0 km/h
265 17-10-2020 22:00:00 6.3 C 6.88 g/m*3 6.3 C 0 km/h
266 17-10-2020 22:05:00 6.3 C 6.96 g/m*3 6.3 C 0 km/h
267 17-10-2020 22:10:00 6.3 C 6.96 g/m*3 6.3 C 0 km/h
268 17-10-2020 22:15:00 6.4 C 7 g/m*3 6.4 C 0 km/h
269 17-10-2020 22:20:00 6.4 C 7 g/m*3 6.4 C 0 km/h
270 17-10-2020 22:25:00 6.4 C 7 g/m*3 6.4 C 0 km/h
271 17-10-2020 22:30:00 6.4 C 7 g/m*3 6.4 C 0 km/h
272 17-10-2020 22:35:00 6.4 C 7 g/m*3 6.4 C 0 km/h
273 17-10-2020 22:40:00 6.3 C 6.96 g/m*3 6.3 C 0 km/h
274 17-10-2020 22:45:00 6.2 C 6.91 g/m*3 6.2 C 0 km/h
275 17-10-2020 22:50:00 6.2 C 6.91 g/m*3 6.2 C 0 km/h
Sensor: Nr:Datum:Temp:Abs-Feuchte:Windchill:Wind:
Aussen-T/F 276 17-10-2020 22:55:00 6.1 C 6.87 g/m*3 6.1 C 0 km/h
277 17-10-2020 23:00:00 6.1 C 6.87 g/m*3 6.1 C 0 km/h
278 17-10-2020 23:05:00 6 C 6.82 g/m*3 6 C 0 km/h
279 17-10-2020 23:10:00 6 C 6.82 g/m*3 6 C 0 km/h
280 17-10-2020 23:15:00 6 C 6.82 g/m*3 6 C 0 km/h
281 17-10-2020 23:20:00 5.9 C 6.78 g/m*3 5.9 C 0 km/h
282 17-10-2020 23:25:00 5.9 C 6.78 g/m*3 5.9 C 0 km/h
283 17-10-2020 23:30:00 5.8 C 6.81 g/m*3 5.8 C 0 km/h
284 17-10-2020 23:35:00 5.8 C 6.81 g/m*3 5.8 C 0 km/h
285 17-10-2020 23:40:00 5.8 C 6.81 g/m*3 5.8 C 0 km/h
286 17-10-2020 23:45:00 5.8 C 6.81 g/m*3 5.8 C 0 km/h
287 17-10-2020 23:50:00 5.9 C 6.85 g/m*3 5.9 C 0 km/h
288 17-10-2020 23:55:00 5.9 C 6.85 g/m*3 5.9 C 0 km/h

Legende:
   Min
   Max


Maximal/Minimal-Werte vom 17.10.2020 - 17.10.2020

Sensor Min Max Avg
Temp
(Aussen-T/F)
3.1 °C
17-10-2020  05:05:00
9.9 °C
17-10-2020  15:45:00
6.2 °C
Abs-Feuchte
(Aussen-T/F)
5.75 g/m*3
17-10-2020  05:05:00
8.09 g/m*3
17-10-2020  15:00:00
6.86 g/m*3
Windchill
(Aussen-T/F)
3.1 C
17-10-2020  05:05:00
9.9 C
17-10-2020  15:45:00
6.16 C

Die Daten stammen von einer Davis Vantage Pro 2 Wetter-Station und werden unter Linux mit der Software wview2wettercgi und aufbereitet. Alle Angaben erfolgen ohne Gewähr für ihre Vollständigkeit oder Richtigkeit.
Kontakt: Rainer Krienke krienke@uni-koblenz.de . Meine Webseiten an der Uni Koblenz oder privat.
Version: $Revision: 0.78 $